| time (UTC) | temp F | wind direction | speed MPH | gust MPH | rain 1hr in | rain 24hr in | rain mn in | humidity % | barometer mb |
| 20260904075557 | 75 | 269 | 0.0 | 0.0 | 0.00 | 0.02 | 0.00 | 99 | 1015.6 |
| 20260904075055 | 75 | 269 | 0.0 | 0.0 | 0.00 | 0.02 | 0.00 | 99 | 1015.5 |
| 20260904074620 | 75 | 268 | 0.0 | 0.0 | 0.00 | 0.02 | 0.00 | 99 | 1015.5 |
| 20260904074055 | 75 | 269 | 0.0 | 0.0 | 0.00 | 0.02 | 0.00 | 99 | 1015.7 |
| 20260904073557 | 75 | 269 | 0.0 | 0.0 | 0.00 | 0.02 | 0.00 | 99 | 1015.6 |
| 20260904073053 | 75 | 269 | 0.0 | 0.0 | 0.00 | 0.02 | 0.00 | 99 | 1015.7 |
| 20260904072052 | 75 | 269 | 0.0 | 0.0 | 0.00 | 0.02 | 0.00 | 99 | 1015.6 |
| 20260904071553 | 75 | 269 | 0.0 | 0.0 | 0.00 | 0.02 | 0.00 | 99 | 1015.7 |
| 20260904071053 | 75 | 269 | 0.0 | 0.0 | 0.00 | 0.02 | 0.00 | 99 | 1015.6 |
| 20260904070554 | 75 | 269 | 0.0 | 0.0 | 0.00 | 0.02 | 0.00 | 99 | 1015.7 |
| 20260904070051 | 75 | 269 | 0.0 | 0.0 | 0.00 | 0.02 | 0.00 | 99 | 1015.7 |
| 20260904065550 | 75 | 269 | 0.0 | 0.0 | 0.00 | 0.02 | 0.00 | 99 | 1015.7 |
| 20260904065050 | 76 | 269 | 0.0 | 0.0 | 0.00 | 0.02 | 0.00 | 98 | 1015.7 |
| 20260904064549 | 76 | 268 | 0.0 | 0.0 | 0.00 | 0.02 | 0.00 | 99 | 1015.8 |
| 20260904064050 | 76 | 269 | 0.0 | 0.0 | 0.00 | 0.02 | 0.00 | 98 | 1015.8 |
| 20260904063549 | 76 | 269 | 0.0 | 0.0 | 0.00 | 0.02 | 0.00 | 99 | 1015.8 |
| 20260904063105 | 76 | 269 | 0.0 | 0.0 | 0.00 | 0.02 | 0.00 | 99 | 1015.9 |
| 20260904062049 | 76 | 269 | 0.0 | 0.0 | 0.00 | 0.02 | 0.00 | 99 | 1015.9 |
| 20260904061553 | 76 | 269 | 0.0 | 0.0 | 0.00 | 0.02 | 0.00 | 98 | 1015.9 |
| 20260904061047 | 76 | 269 | 0.0 | 0.0 | 0.00 | 0.02 | 0.00 | 98 | 1015.8 |
| 20260904060546 | 77 | 269 | 0.0 | 0.0 | 0.00 | 0.02 | 0.00 | 98 | 1015.9 |
| 20260904060107 | 77 | 269 | 0.0 | 0.0 | 0.00 | 0.02 | 0.00 | 98 | 1016.0 |
| 20260904055546 | 77 | 269 | 0.0 | 0.0 | 0.00 | 0.02 | 0.00 | 98 | 1016.1 |
| 20260904055044 | 77 | 268 | 0.0 | 1.0 | 0.00 | 0.02 | 0.00 | 98 | 1016.1 |
| 20260904054544 | 77 | 269 | 0.0 | 1.0 | 0.00 | 0.02 | 0.00 | 98 | 1016.2 |
| 20260904054044 | 77 | 268 | 0.0 | 1.0 | 0.00 | 0.02 | 0.00 | 98 | 1016.2 |
| 20260904053543 | 77 | 268 | 0.0 | 1.0 | 0.00 | 0.02 | 0.00 | 98 | 1016.2 |
| 20260904053043 | 77 | 269 | 0.0 | 1.0 | 0.00 | 0.02 | 0.00 | 98 | 1016.3 |
| 20260904052041 | 77 | 271 | 0.0 | 1.0 | 0.00 | 0.02 | 0.00 | 98 | 1016.3 |
| 20260904051542 | 77 | 271 | 0.0 | 1.0 | 0.00 | 0.02 | 0.00 | 99 | 1016.4 |
| 20260904051040 | 77 | 262 | 0.0 | 1.0 | 0.00 | 0.02 | 0.00 | 98 | 1016.5 |
| 20260904050539 | 77 | 261 | 0.0 | 1.0 | 0.00 | 0.02 | 0.00 | 99 | 1016.6 |
| 20260904050039 | 77 | 260 | 0.0 | 1.0 | 0.00 | 0.02 | 0.00 | 98 | 1016.6 |
| 20260904045538 | 77 | 261 | 0.0 | 1.0 | 0.00 | 0.02 | 0.00 | 99 | 1016.7 |
| 20260904045037 | 77 | 277 | 0.0 | 1.0 | 0.00 | 0.02 | 0.00 | 99 | 1016.7 |
| 20260904044547 | 77 | 281 | 0.0 | 2.0 | 0.00 | 0.02 | 0.00 | 99 | 1016.7 |
| 20260904044037 | 77 | 278 | 0.0 | 2.0 | 0.00 | 0.02 | 0.00 | 99 | 1016.7 |
| 20260904043536 | 77 | 278 | 0.0 | 1.0 | 0.00 | 0.02 | 0.00 | 99 | 1016.8 |
| 20260904043037 | 77 | 278 | 0.0 | 1.0 | 0.00 | 0.02 | 0.00 | 99 | 1016.8 |
| 20260904042036 | 76 | 278 | 0.0 | 0.0 | 0.00 | 0.02 | 0.00 | 99 | 1016.9 |
| 20260904041535 | 76 | 278 | 0.0 | 1.0 | 0.00 | 0.02 | 0.00 | 99 | 1016.9 |
| 20260904041033 | 76 | 278 | 0.0 | 1.0 | 0.00 | 0.02 | 0.00 | 99 | 1016.9 |
| 20260904040534 | 76 | 278 | 0.0 | 1.0 | 0.00 | 0.02 | 0.00 | 98 | 1016.9 |
| 20260904040032 | 76 | 278 | 0.0 | 1.0 | 0.00 | 0.02 | 0.00 | 99 | 1017.0 |
| 20260904035532 | 76 | 278 | 0.0 | 0.0 | 0.00 | 0.02 | 0.02 | 98 | 1017.1 |
| 20260904035031 | 76 | 278 | 0.0 | 0.0 | 0.00 | 0.02 | 0.02 | 98 | 1017.1 |
| 20260904034534 | 76 | 278 | 0.0 | 0.0 | 0.00 | 0.02 | 0.02 | 98 | 1017.2 |
| 20260904034031 | 76 | 278 | 0.0 | 0.0 | 0.00 | 0.02 | 0.02 | 98 | 1017.2 |
| 20260904033531 | 76 | 278 | 0.0 | 0.0 | 0.00 | 0.02 | 0.02 | 98 | 1017.2 |
| 20260904033030 | 76 | 278 | 0.0 | 0.0 | 0.00 | 0.02 | 0.02 | 98 | 1017.2 |
| 20260904032031 | 76 | 278 | 0.0 | 0.0 | 0.00 | 0.02 | 0.02 | 98 | 1017.2 |
| 20260904031531 | 76 | 278 | 0.0 | 0.0 | 0.00 | 0.02 | 0.02 | 97 | 1017.1 |
| 20260904031030 | 77 | 278 | 0.0 | 0.0 | 0.00 | 0.02 | 0.02 | 97 | 1017.0 |
| 20260904030533 | 77 | 278 | 0.0 | 0.0 | 0.00 | 0.02 | 0.02 | 97 | 1017.0 |
| 20260904030031 | 77 | 278 | 0.0 | 0.0 | 0.00 | 0.02 | 0.02 | 97 | 1017.0 |
| 20260904025534 | 77 | 278 | 0.0 | 0.0 | 0.00 | 0.02 | 0.02 | 97 | 1017.0 |
| 20260904025030 | 77 | 278 | 0.0 | 0.0 | 0.00 | 0.02 | 0.02 | 97 | 1016.9 |
| 20260904024530 | 77 | 278 | 0.0 | 0.0 | 0.00 | 0.02 | 0.02 | 97 | 1016.9 |
| 20260904024029 | 78 | 278 | 0.0 | 0.0 | 0.00 | 0.02 | 0.02 | 96 | 1016.9 |
| 20260904023533 | 78 | 278 | 0.0 | 1.0 | 0.00 | 0.02 | 0.02 | 96 | 1017.0 |
| 20260904023130 | 78 | 278 | 0.0 | 1.0 | 0.00 | 0.02 | 0.02 | 96 | 1017.0 |
| 20260904022034 | 78 | 278 | 0.0 | 1.0 | 0.00 | 0.02 | 0.02 | 96 | 1017.1 |
| 20260904021529 | 78 | 278 | 0.0 | 1.0 | 0.00 | 0.02 | 0.02 | 96 | 1017.1 |
| 20260904021029 | 78 | 278 | 0.0 | 1.0 | 0.00 | 0.02 | 0.02 | 96 | 1017.1 |
| 20260904020529 | 78 | 278 | 0.0 | 0.0 | 0.00 | 0.02 | 0.02 | 96 | 1017.1 |
| 20260904020029 | 78 | 278 | 0.0 | 0.0 | 0.00 | 0.02 | 0.02 | 96 | 1017.2 |
| 20260904015528 | 79 | 278 | 0.0 | 1.0 | 0.00 | 0.02 | 0.02 | 96 | 1017.1 |
| 20260904015028 | 79 | 278 | 0.0 | 2.0 | 0.00 | 0.02 | 0.02 | 96 | 1017.0 |
| 20260904014528 | 79 | 278 | 0.0 | 2.0 | 0.00 | 0.02 | 0.02 | 96 | 1017.1 |
| 20260904014032 | 79 | 251 | 0.0 | 2.0 | 0.00 | 0.02 | 0.02 | 96 | 1017.0 |
| 20260904013528 | 79 | 252 | 0.0 | 2.0 | 0.00 | 0.02 | 0.02 | 95 | 1016.9 |
| 20260904013033 | 79 | 235 | 0.0 | 1.0 | 0.00 | 0.02 | 0.02 | 95 | 1016.8 |
| 20260904012032 | 79 | 235 | 0.0 | 1.0 | 0.00 | 0.02 | 0.02 | 95 | 1016.5 |
| 20260904011536 | 79 | 235 | 0.0 | 2.0 | 0.00 | 0.02 | 0.02 | 95 | 1016.6 |
| 20260904011030 | 79 | 235 | 0.0 | 1.0 | 0.00 | 0.02 | 0.02 | 95 | 1016.5 |
| 20260904010527 | 80 | 235 | 0.0 | 1.0 | 0.00 | 0.02 | 0.02 | 95 | 1016.5 |
| 20260904010040 | 80 | 235 | 0.0 | 2.0 | 0.00 | 0.02 | 0.02 | 95 | 1016.6 |
| 20260904005527 | 80 | 235 | 0.0 | 2.0 | 0.00 | 0.02 | 0.02 | 95 | 1016.5 |
| 20260904005026 | 80 | 216 | 0.0 | 3.0 | 0.00 | 0.02 | 0.02 | 95 | 1016.3 |
| 20260904004528 | 80 | 216 | 0.0 | 3.0 | 0.00 | 0.02 | 0.02 | 95 | 1016.2 |
| 20260904004026 | 80 | 224 | 0.0 | 2.0 | 0.00 | 0.02 | 0.02 | 94 | 1016.3 |
| 20260904003530 | 80 | 248 | 0.0 | 2.0 | 0.01 | 0.02 | 0.02 | 94 | 1016.2 |
| 20260904003025 | 80 | 249 | 0.0 | 2.0 | 0.01 | 0.02 | 0.02 | 94 | 1016.1 |
| 20260904002026 | 80 | 247 | 0.0 | 2.0 | 0.01 | 0.02 | 0.02 | 94 | 1015.8 |
| 20260904001526 | 80 | 246 | 0.0 | 2.0 | 0.01 | 0.02 | 0.02 | 94 | 1015.8 |
| 20260904001029 | 80 | 239 | 0.0 | 2.0 | 0.01 | 0.02 | 0.02 | 93 | 1015.7 |
| 20260904000526 | 81 | 248 | 0.0 | 2.0 | 0.01 | 0.02 | 0.02 | 93 | 1015.6 |
| 20260904000026 | 81 | 231 | 0.0 | 3.0 | 0.01 | 0.03 | 0.02 | 93 | 1015.6 |
| 20260903235526 | 81 | 251 | 0.0 | 3.0 | 0.01 | 0.03 | 0.02 | 93 | 1015.6 |
| 20260903235026 | 81 | 262 | 1.0 | 4.0 | 0.01 | 0.03 | 0.02 | 92 | 1015.6 |
| 20260903234533 | 81 | 262 | 0.0 | 4.0 | 0.01 | 0.03 | 0.02 | 92 | 1015.6 |
| 20260903234025 | 81 | 266 | 0.0 | 3.0 | 0.01 | 0.03 | 0.02 | 92 | 1015.6 |
| 20260903233530 | 82 | 254 | 0.0 | 5.0 | 0.00 | 0.02 | 0.01 | 91 | 1015.7 |
| 20260903233025 | 82 | 242 | 0.0 | 5.0 | 0.00 | 0.02 | 0.01 | 91 | 1015.6 |
| 20260903232025 | 82 | 285 | 0.0 | 4.0 | 0.00 | 0.02 | 0.01 | 90 | 1015.7 |
| 20260903231524 | 83 | 260 | 0.0 | 4.0 | 0.00 | 0.02 | 0.01 | 90 | 1015.7 |
| 20260903231025 | 83 | 259 | 1.0 | 4.0 | 0.00 | 0.02 | 0.01 | 89 | 1015.8 |
| 20260903230524 | 83 | 226 | 1.0 | 4.0 | 0.00 | 0.02 | 0.01 | 89 | 1015.8 |
| 20260903230025 | 83 | 264 | 1.0 | 4.0 | 0.00 | 0.02 | 0.01 | 88 | 1015.8 |
| 20260903225526 | 84 | 260 | 0.0 | 7.0 | 0.00 | 0.02 | 0.01 | 87 | 1015.7 |
| 20260903225023 | 84 | 255 | 2.0 | 7.0 | 0.00 | 0.02 | 0.01 | 86 | 1015.8 |
| 20260903224527 | 85 | 253 | 1.0 | 5.0 | 0.00 | 0.02 | 0.01 | 85 | 1015.9 |
| 20260903224026 | 85 | 247 | 0.0 | 5.0 | 0.00 | 0.02 | 0.01 | 84 | 1015.8 |
| 20260903223523 | 86 | 274 | 0.0 | 8.0 | 0.00 | 0.02 | 0.01 | 84 | 1015.8 |
| 20260903223034 | 86 | 200 | 2.0 | 8.0 | 0.00 | 0.02 | 0.01 | 84 | 1016.0 |
| 20260903222026 | 86 | 271 | 3.0 | 10.0 | 0.00 | 0.02 | 0.01 | 82 | 1016.0 |
| 20260903221524 | 87 | 280 | 0.0 | 5.0 | 0.00 | 0.02 | 0.01 | 82 | 1016.0 |
| 20260903221023 | 87 | 251 | 1.0 | 8.0 | 0.00 | 0.02 | 0.01 | 81 | 1016.0 |
| 20260903220523 | 87 | 262 | 3.0 | 9.0 | 0.00 | 0.02 | 0.01 | 80 | 1016.0 |
| 20260903220035 | 87 | 238 | 1.0 | 9.0 | 0.00 | 0.02 | 0.01 | 81 | 1016.1 |
| 20260903215523 | 87 | 259 | 1.0 | 6.0 | 0.00 | 0.02 | 0.01 | 81 | 1016.1 |
| 20260903215023 | 87 | 231 | 2.0 | 7.0 | 0.00 | 0.02 | 0.01 | 79 | 1016.1 |
| 20260903214523 | 88 | 288 | 1.0 | 8.0 | 0.00 | 0.02 | 0.01 | 79 | 1016.1 |
| 20260903214023 | 88 | 257 | 2.0 | 11.0 | 0.00 | 0.02 | 0.01 | 78 | 1016.0 |
| 20260903213526 | 88 | 233 | 3.0 | 11.0 | 0.00 | 0.02 | 0.01 | 79 | 1016.0 |
| 20260903213033 | 88 | 232 | 2.0 | 8.0 | 0.00 | 0.02 | 0.01 | 78 | 1015.8 |
| 20260903212033 | 88 | 248 | 2.0 | 8.0 | 0.00 | 0.02 | 0.01 | 79 | 1015.8 |
| 20260903211556 | 88 | 286 | 1.0 | 9.0 | 0.00 | 0.02 | 0.01 | 78 | 1015.7 |
| 20260903211033 | 88 | 239 | 3.0 | 9.0 | 0.00 | 0.02 | 0.01 | 78 | 1015.7 |
| 20260903210531 | 88 | 259 | 3.0 | 10.0 | 0.00 | 0.02 | 0.01 | 76 | 1015.7 |
| 20260903210030 | 88 | 262 | 3.0 | 10.0 | 0.00 | 0.02 | 0.01 | 75 | 1015.7 |
| 20260903205529 | 89 | 276 | 1.0 | 7.0 | 0.00 | 0.02 | 0.01 | 76 | 1015.7 |
| 20260903205028 | 89 | 159 | 1.0 | 7.0 | 0.00 | 0.02 | 0.01 | 77 | 1015.8 |
| 20260903204528 | 89 | 281 | 1.0 | 6.0 | 0.00 | 0.02 | 0.01 | 76 | 1015.8 |
| 20260903204028 | 89 | 261 | 1.0 | 9.0 | 0.00 | 0.02 | 0.01 | 75 | 1015.8 |
| 20260903203526 | 89 | 213 | 3.0 | 9.0 | 0.00 | 0.02 | 0.01 | 73 | 1015.9 |
| 20260903203027 | 89 | 224 | 1.0 | 9.0 | 0.00 | 0.02 | 0.01 | 72 | 1015.8 |
| 20260903202018 | 90 | 334 | 1.0 | 7.0 | 0.00 | 0.02 | 0.01 | 72 | 1016.1 |
| 20260903201518 | 89 | 207 | 0.0 | 12.0 | 0.00 | 0.02 | 0.01 | 75 | 1016.2 |
| 20260903201017 | 89 | 272 | 3.0 | 12.0 | 0.00 | 0.02 | 0.01 | 73 | 1016.1 |
| 20260903200517 | 90 | 221 | 3.0 | 9.0 | 0.00 | 0.02 | 0.01 | 72 | 1016.1 |
| 20260903200018 | 90 | 121 | 2.0 | 8.0 | 0.00 | 0.02 | 0.01 | 70 | 1016.1 |
| 20260903195516 | 90 | 167 | 1.0 | 8.0 | 0.00 | 0.02 | 0.01 | 72 | 1016.2 |
| 20260903195017 | 90 | 262 | 1.0 | 6.0 | 0.00 | 0.02 | 0.01 | 71 | 1016.2 |
| 20260903194518 | 90 | 264 | 0.0 | 7.0 | 0.00 | 0.02 | 0.01 | 70 | 1016.3 |
| 20260903194017 | 89 | 252 | 0.0 | 9.0 | 0.00 | 0.02 | 0.01 | 72 | 1016.4 |
| 20260903193517 | 89 | 241 | 3.0 | 9.0 | 0.00 | 0.02 | 0.01 | 73 | 1016.5 |
| 20260903193017 | 90 | 225 | 2.0 | 0.0 | 0.00 | 0.00 | 0.01 | 72 | 1016.6 |
| 20260903192016 | 90 | 271 | 0.0 | 8.0 | 0.00 | 0.02 | 0.01 | 72 | 1016.6 |
| 20260903191520 | 89 | 221 | 4.0 | 8.0 | 0.00 | 0.02 | 0.01 | 73 | 1016.6 |
| 20260903191016 | 89 | 206 | 1.0 | 8.0 | 0.00 | 0.02 | 0.01 | 75 | 1016.6 |
| 20260903190516 | 89 | 1 | 1.0 | 9.0 | 0.00 | 0.02 | 0.01 | 73 | 1016.8 |
| 20260903190015 | 89 | 278 | 2.0 | 10.0 | 0.00 | 0.02 | 0.01 | 73 | 1016.8 |
| 20260903185515 | 89 | 248 | 3.0 | 10.0 | 0.00 | 0.02 | 0.01 | 72 | 1016.9 |
| 20260903185016 | 90 | 217 | 4.0 | 10.0 | 0.00 | 0.02 | 0.01 | 70 | 1016.9 |
| 20260903184515 | 89 | 242 | 5.0 | 10.0 | 0.00 | 0.02 | 0.01 | 69 | 1017.0 |
| 20260903184015 | 90 | 301 | 2.0 | 9.0 | 0.00 | 0.02 | 0.01 | 69 | 1017.0 |
| 20260903183514 | 90 | 184 | 1.0 | 11.0 | 0.00 | 0.02 | 0.01 | 69 | 1017.0 |
| 20260903183014 | 90 | 265 | 3.0 | 11.0 | 0.00 | 0.02 | 0.01 | 70 | 1017.0 |
| 20260903182012 | 92 | 158 | 0.0 | 7.0 | 0.00 | 0.02 | 0.01 | 70 | 1017.2 |
| 20260903181512 | 91 | 256 | 0.0 | 7.0 | 0.00 | 0.02 | 0.01 | 67 | 1017.2 |
| 20260903181013 | 91 | 294 | 1.0 | 7.0 | 0.00 | 0.02 | 0.01 | 66 | 1017.3 |
| 20260903180511 | 91 | 247 | 1.0 | 9.0 | 0.00 | 0.02 | 0.01 | 66 | 1017.2 |
| 20260903180012 | 91 | 254 | 3.0 | 9.0 | 0.00 | 0.02 | 0.01 | 65 | 1017.2 |
| 20260903175510 | 92 | 261 | 1.0 | 4.0 | 0.00 | 0.02 | 0.01 | 65 | 1017.2 |
| 20260903175011 | 91 | 157 | 0.0 | 8.0 | 0.00 | 0.02 | 0.01 | 67 | 1017.3 |
| 20260903174529 | 91 | 266 | 0.0 | 5.0 | 0.00 | 0.02 | 0.01 | 68 | 1017.3 |
| 20260903174009 | 91 | 271 | 1.0 | 5.0 | 0.00 | 0.02 | 0.01 | 67 | 1017.4 |
| 20260903173509 | 91 | 211 | 1.0 | 5.0 | 0.00 | 0.02 | 0.01 | 64 | 1017.4 |
| 20260903173021 | 91 | 131 | 0.0 | 3.0 | 0.00 | 0.02 | 0.01 | 68 | 1017.3 |
| 20260903172009 | 91 | 271 | 1.0 | 9.0 | 0.00 | 0.02 | 0.01 | 68 | 1017.4 |
| 20260903171509 | 91 | 183 | 0.0 | 7.0 | 0.00 | 0.02 | 0.01 | 69 | 1017.4 |
| 20260903171009 | 91 | 216 | 1.0 | 9.0 | 0.00 | 0.02 | 0.01 | 69 | 1017.5 |
| 20260903170508 | 91 | 233 | 2.0 | 9.0 | 0.00 | 0.02 | 0.01 | 68 | 1017.5 |
| 20260903170008 | 91 | 264 | 0.0 | 10.0 | 0.00 | 0.02 | 0.01 | 67 | 1017.6 |
| 20260903165507 | 90 | 239 | 4.0 | 10.0 | 0.00 | 0.02 | 0.01 | 65 | 1017.7 |
| 20260903165007 | 91 | 259 | 1.0 | 4.0 | 0.00 | 0.02 | 0.01 | 71 | 1017.7 |
| 20260903164507 | 90 | 115 | 0.0 | 5.0 | 0.00 | 0.02 | 0.01 | 70 | 1017.7 |
| 20260903164006 | 90 | 266 | 1.0 | 6.0 | 0.00 | 0.02 | 0.01 | 69 | 1017.7 |
| 20260903163505 | 90 | 194 | 2.0 | 6.0 | 0.00 | 0.02 | 0.01 | 68 | 1017.8 |
| 20260903163005 | 91 | 62 | 0.0 | 6.0 | 0.00 | 0.02 | 0.01 | 69 | 1017.8 |
| 20260903162006 | 91 | 235 | 0.0 | 3.0 | 0.00 | 0.02 | 0.01 | 70 | 1018.0 |
| 20260903161511 | 92 | 169 | 0.0 | 4.0 | 0.00 | 0.02 | 0.01 | 73 | 1018.0 |
| 20260903161003 | 91 | 257 | 0.0 | 4.0 | 0.00 | 0.02 | 0.01 | 72 | 1018.1 |
| 20260903160503 | 90 | 89 | 0.0 | 4.0 | 0.00 | 0.02 | 0.01 | 72 | 1017.9 |
| 20260903160002 | 91 | 276 | 1.0 | 5.0 | 0.00 | 0.02 | 0.01 | 71 | 1018.0 |
| 20260903155502 | 90 | 233 | 0.0 | 4.0 | 0.00 | 0.02 | 0.01 | 76 | 1018.0 |
| 20260903155004 | 91 | 217 | 0.0 | 7.0 | 0.00 | 0.02 | 0.01 | 75 | 1018.0 |
| 20260903154501 | 90 | 229 | 1.0 | 7.0 | 0.00 | 0.02 | 0.01 | 76 | 1018.1 |
| 20260903154101 | 90 | 287 | 1.0 | 5.0 | 0.00 | 0.02 | 0.01 | 74 | 1018.0 |
| 20260903153600 | 90 | 243 | 0.0 | 4.0 | 0.00 | 0.02 | 0.01 | 75 | 1018.1 |
| 20260903153501 | 90 | 243 | 0.0 | 4.0 | 0.00 | 0.02 | 0.01 | 76 | 1018.1 |
| 20260903153102 | 90 | 290 | 1.0 | 4.0 | 0.00 | 0.02 | 0.01 | 75 | 1018.1 |
| 20260903152058 | 90 | 96 | 1.0 | 4.0 | 0.00 | 0.02 | 0.01 | 76 | 1017.9 |
| 20260903151559 | 90 | 218 | 0.0 | 4.0 | 0.00 | 0.02 | 0.01 | 77 | 1018.0 |
| 20260903151057 | 90 | 264 | 1.0 | 3.0 | 0.00 | 0.02 | 0.01 | 76 | 1018.0 |
| 20260903150558 | 90 | 234 | 1.0 | 3.0 | 0.00 | 0.02 | 0.01 | 78 | 1018.1 |
| 20260903150112 | 90 | 261 | 0.0 | 3.0 | 0.00 | 0.02 | 0.01 | 78 | 1018.1 |
| 20260903145555 | 90 | 109 | 1.0 | 5.0 | 0.00 | 0.02 | 0.01 | 77 | 1018.2 |
| 20260903145055 | 89 | 135 | 0.0 | 5.0 | 0.00 | 0.02 | 0.01 | 80 | 1018.2 |
| 20260903144554 | 88 | 261 | 1.0 | 5.0 | 0.00 | 0.02 | 0.01 | 80 | 1018.2 |
| 20260903144053 | 88 | 285 | 0.0 | 5.0 | 0.00 | 0.02 | 0.01 | 78 | 1018.2 |
| 20260903143551 | 89 | 163 | 0.0 | 3.0 | 0.00 | 0.02 | 0.01 | 80 | 1018.2 |
| 20260903143053 | 88 | 268 | 1.0 | 3.0 | 0.00 | 0.02 | 0.01 | 80 | 1018.2 |
| 20260903142050 | 88 | 245 | 0.0 | 6.0 | 0.00 | 0.02 | 0.01 | 82 | 1018.1 |
| 20260903141550 | 87 | 251 | 0.0 | 5.0 | 0.00 | 0.02 | 0.01 | 83 | 1017.9 |
| 20260903141048 | 86 | 289 | 1.0 | 6.0 | 0.00 | 0.02 | 0.01 | 82 | 1017.9 |
| 20260903140547 | 86 | 307 | 2.0 | 6.0 | 0.00 | 0.02 | 0.01 | 82 | 1017.9 |
| 20260903140047 | 86 | 273 | 2.0 | 5.0 | 0.00 | 0.02 | 0.01 | 83 | 1017.8 |
| 20260903135546 | 86 | 269 | 0.0 | 6.0 | 0.00 | 0.02 | 0.01 | 84 | 1017.8 |
| 20260903135045 | 86 | 248 | 2.0 | 6.0 | 0.00 | 0.02 | 0.01 | 83 | 1017.8 |
| 20260903134543 | 85 | 248 | 2.0 | 4.0 | 0.00 | 0.02 | 0.01 | 84 | 1017.7 |
| 20260903134043 | 85 | 222 | 0.0 | 4.0 | 0.00 | 0.02 | 0.01 | 87 | 1017.8 |
| 20260903133545 | 84 | 249 | 1.0 | 6.0 | 0.00 | 0.02 | 0.01 | 87 | 1017.9 |
| 20260903133050 | 84 | 248 | 2.0 | 6.0 | 0.00 | 0.02 | 0.01 | 87 | 1017.9 |
| 20260903132040 | 84 | 296 | 2.0 | 5.0 | 0.00 | 0.02 | 0.01 | 89 | 1017.9 |
| 20260903131541 | 84 | 264 | 0.0 | 4.0 | 0.00 | 0.02 | 0.01 | 91 | 1017.9 |
| 20260903131040 | 83 | 257 | 1.0 | 4.0 | 0.00 | 0.02 | 0.01 | 92 | 1017.9 |
| 20260903130537 | 83 | 223 | 0.0 | 4.0 | 0.00 | 0.02 | 0.01 | 93 | 1018.0 |
| 20260903130036 | 83 | 222 | 0.0 | 4.0 | 0.00 | 0.02 | 0.01 | 94 | 1018.1 |
| 20260903125535 | 83 | 246 | 0.0 | 2.0 | 0.00 | 0.02 | 0.01 | 95 | 1018.1 |
| 20260903125034 | 82 | 254 | 0.0 | 1.0 | 0.00 | 0.02 | 0.01 | 97 | 1018.1 |
| 20260903124536 | 81 | 254 | 0.0 | 1.0 | 0.00 | 0.02 | 0.01 | 97 | 1018.1 |
| 20260903124032 | 81 | 254 | 0.0 | 2.0 | 0.00 | 0.02 | 0.01 | 98 | 1018.1 |
| 20260903123530 | 80 | 254 | 0.0 | 2.0 | 0.00 | 0.02 | 0.01 | 98 | 1018.1 |
| 20260903123030 | 80 | 253 | 0.0 | 3.0 | 0.00 | 0.02 | 0.01 | 99 | 1018.0 |
| 20260903122029 | 79 | 241 | 1.0 | 3.0 | 0.00 | 0.02 | 0.01 | 99 | 1017.9 |
| 20260903121528 | 78 | 242 | 0.0 | 3.0 | 0.00 | 0.02 | 0.01 | 99 | 1017.8 |
| 20260903121027 | 78 | 242 | 0.0 | 1.0 | 0.00 | 0.02 | 0.01 | 100 | 1017.8 |
| 20260903120525 | 78 | 242 | 0.0 | 1.0 | 0.00 | 0.02 | 0.01 | 100 | 1017.8 |
| 20260903120028 | 77 | 242 | 0.0 | 1.0 | 0.00 | 0.02 | 0.01 | 100 | 1017.7 |
| 20260903115526 | 76 | 242 | 0.0 | 0.0 | 0.00 | 0.02 | 0.01 | 100 | 1017.7 |
| 20260903115024 | 76 | 242 | 0.0 | 0.0 | 0.00 | 0.02 | 0.01 | 100 | 1017.7 |
| 20260903114524 | 75 | 242 | 0.0 | 0.0 | 0.00 | 0.02 | 0.01 | 100 | 1017.7 |
| 20260903114024 | 75 | 242 | 0.0 | 0.0 | 0.00 | 0.02 | 0.01 | 100 | 1017.7 |
| 20260903113523 | 74 | 242 | 0.0 | 1.0 | 0.00 | 0.02 | 0.01 | 100 | 1017.7 |
| 20260903113023 | 74 | 242 | 0.0 | 1.0 | 0.00 | 0.02 | 0.01 | 100 | 1017.7 |
| 20260903112022 | 74 | 242 | 0.0 | 1.0 | 0.01 | 0.02 | 0.01 | 100 | 1017.4 |
| 20260903111537 | 74 | 242 | 0.0 | 1.0 | 0.01 | 0.02 | 0.01 | 100 | 1017.4 |
| 20260903111021 | 74 | 242 | 0.0 | 0.0 | 0.01 | 0.02 | 0.01 | 100 | 1017.4 |
| 20260903110521 | 74 | 241 | 0.0 | 0.0 | 0.01 | 0.02 | 0.01 | 100 | 1017.4 |
| 20260903110020 | 73 | 242 | 0.0 | 0.0 | 0.01 | 0.03 | 0.01 | 100 | 1017.3 |
| 20260903105524 | 73 | 242 | 0.0 | 1.0 | 0.01 | 0.03 | 0.01 | 100 | 1017.4 |
| 20260903105019 | 73 | 277 | 0.0 | 1.0 | 0.01 | 0.03 | 0.01 | 100 | 1017.4 |
| 20260903104519 | 73 | 277 | 0.0 | 0.0 | 0.01 | 0.03 | 0.01 | 100 | 1017.3 |
| 20260903104018 | 73 | 277 | 0.0 | 0.0 | 0.01 | 0.03 | 0.01 | 100 | 1017.3 |
| 20260903103518 | 73 | 277 | 0.0 | 0.0 | 0.01 | 0.03 | 0.01 | 100 | 1017.3 |
| 20260903103018 | 73 | 278 | 0.0 | 0.0 | 0.01 | 0.03 | 0.01 | 100 | 1017.2 |
| 20260903102017 | 73 | 277 | 0.0 | 0.0 | 0.00 | 0.02 | 0.00 | 100 | 1017.3 |
| 20260903101516 | 73 | 277 | 0.0 | 0.0 | 0.00 | 0.02 | 0.00 | 100 | 1017.2 |
| 20260903101016 | 73 | 277 | 0.0 | 0.0 | 0.00 | 0.02 | 0.00 | 100 | 1017.1 |
| 20260903100516 | 73 | 277 | 0.0 | 0.0 | 0.00 | 0.02 | 0.00 | 100 | 1017.1 |
| 20260903100016 | 73 | 277 | 0.0 | 0.0 | 0.00 | 0.02 | 0.00 | 100 | 1017.1 |
| 20260903095515 | 74 | 277 | 0.0 | 0.0 | 0.00 | 0.02 | 0.00 | 100 | 1017.0 |
| 20260903095014 | 74 | 277 | 0.0 | 0.0 | 0.00 | 0.02 | 0.00 | 100 | 1017.0 |
| 20260903094514 | 73 | 277 | 0.0 | 0.0 | 0.00 | 0.02 | 0.00 | 100 | 1017.0 |
| 20260903094014 | 73 | 277 | 0.0 | 0.0 | 0.00 | 0.02 | 0.00 | 100 | 1016.9 |
| 20260903093519 | 73 | 277 | 0.0 | 0.0 | 0.00 | 0.02 | 0.00 | 99 | 1016.8 |
| 20260903093024 | 73 | 277 | 0.0 | 0.0 | 0.00 | 0.02 | 0.00 | 100 | 1016.8 |
| 20260903092014 | 73 | 277 | 0.0 | 0.0 | 0.00 | 0.02 | 0.00 | 99 | 1016.8 |
| 20260903091525 | 74 | 277 | 0.0 | 0.0 | 0.00 | 0.02 | 0.00 | 99 | 1016.8 |
| 20260903091013 | 74 | 277 | 0.0 | 0.0 | 0.00 | 0.02 | 0.00 | 99 | 1016.7 |
| 20260903090512 | 74 | 277 | 0.0 | 0.0 | 0.00 | 0.02 | 0.00 | 100 | 1016.6 |
| 20260903090013 | 74 | 277 | 0.0 | 0.0 | 0.00 | 0.03 | 0.00 | 100 | 1016.5 |
| 20260903085513 | 74 | 277 | 0.0 | 0.0 | 0.00 | 0.03 | 0.00 | 99 | 1016.6 |
| 20260903085011 | 74 | 277 | 0.0 | 0.0 | 0.00 | 0.03 | 0.00 | 99 | 1016.7 |
| 20260903084511 | 74 | 277 | 0.0 | 0.0 | 0.00 | 0.03 | 0.00 | 99 | 1016.6 |
| 20260903084012 | 74 | 277 | 0.0 | 0.0 | 0.00 | 0.03 | 0.00 | 99 | 1016.6 |
| 20260903083510 | 74 | 277 | 0.0 | 0.0 | 0.00 | 0.03 | 0.00 | 99 | 1016.6 |
| 20260903083011 | 74 | 277 | 0.0 | 0.0 | 0.00 | 0.03 | 0.00 | 99 | 1016.6 |
| 20260903082009 | 74 | 277 | 0.0 | 0.0 | 0.00 | 0.03 | 0.00 | 99 | 1016.6 |
| 20260903081508 | 74 | 277 | 0.0 | 0.0 | 0.00 | 0.03 | 0.00 | 100 | 1016.7 |
| 20260903081010 | 74 | 277 | 0.0 | 0.0 | 0.00 | 0.03 | 0.00 | 99 | 1016.7 |
| 20260903080511 | 74 | 266 | 0.0 | 0.0 | 0.00 | 0.03 | 0.00 | 99 | 1016.7 |